Centralia, IL

1:44 PM CST on February 22, 2018 (GMT -0600)
Centralia Municipal

Weather History for KENL - April, 2013

Change the Weather History Date:

Wednesday, April 10, 2013

  Actual Average (KSLO) Record (KSLO)
Temperature  
Mean Temperature 73 °F -  
Max Temperature 83 °F 63 °F 85 °F (1977)
Min Temperature 63 °F 40 °F 21 °F (1960)
Cooling Degree Days 8    
Growing Degree Days 23 (Base 50)    
Moisture  
Dew Point 66 °F    
Average Humidity 73    
Maximum Humidity 93    
Minimum Humidity 56    
Precipitation  
Precipitation 1.20 in - - ()
Sea Level Pressure  
Sea Level Pressure 29.79 in    
Wind  
Wind Speed 13 mph (South)    
Max Wind Speed 25 mph    
Max Gust Speed 31 mph    
Visibility 9 miles    
Events Rain , Thunderstorm    
Averages and records for this station are not official NWS values.
T = Trace of Precipitation, MM = Missing Value Source: NWS Daily Summary

Daily Weather History Graph

Daily Weather History Graph

Search for Another Location

Airport or City:

Trip Planner

Search our weather history database for the weather conditions in past years. The results will help you decide how hot, cold, wet, or windy it might be!

Date:

Astronomy

Apr. 10, 2013 Rise Set
Actual Time 6:27 AM CDT 7:28 PM CDT
Civil Twilight 6:00 AM CDT 7:55 PM CDT
Nautical Twilight 5:27 AM CDT 8:28 PM CDT
Astronomical Twilight 4:54 AM CDT 9:01 PM CDT
Moon 6:23 AM CDT (4/10) 8:03 PM CDT (4/10)
Length of Visible Light 13h 55m
Length of Day
13h 01m
New Moon, 0% of the Moon is Illuminated
Apr 10
New Moon
Apr 18
First Quarter
Apr 25
Full
May 2
Last Quarter
May 9
New

Hourly Weather History & Observations

Time (CDT) Temp. Heat Index Dew Point Humidity Pressure Visibility Wind Dir Wind Speed Gust Speed Precip Events Conditions
12:15 AM 70.3 °F - 63.5 °F 79% 29.85 in 10.0 mi SE 8.1 mph - N/A   Clear
12:35 AM 70.0 °F - 63.5 °F 80% 29.86 in 10.0 mi SSE 6.9 mph - N/A   Clear
12:55 AM 69.8 °F - 63.5 °F 80% 29.85 in 10.0 mi SSE 8.1 mph - N/A   Clear
1:15 AM 70.5 °F - 63.5 °F 78% 29.85 in 10.0 mi SSE 10.4 mph - N/A   Clear
1:35 AM 70.9 °F - 63.7 °F 78% 29.83 in 10.0 mi SSE 10.4 mph - N/A   Clear
1:55 AM 71.4 °F - 64.0 °F 77% 29.83 in 10.0 mi SSE 11.5 mph - N/A   Clear
2:15 AM 72.1 °F - 64.4 °F 77% 29.82 in 10.0 mi SSE 11.5 mph - N/A   Clear
2:35 AM 71.6 °F - 64.4 °F 78% 29.83 in 10.0 mi South 10.4 mph - N/A   Scattered Clouds
2:55 AM 70.7 °F - 64.2 °F 80% 29.83 in 10.0 mi SSE 9.2 mph - N/A   Scattered Clouds
3:15 AM 70.2 °F - 64.0 °F 81% 29.83 in 10.0 mi SSE 9.2 mph - N/A   Scattered Clouds
3:35 AM 69.3 °F - 63.9 °F 83% 29.84 in 10.0 mi SSE 8.1 mph - N/A   Scattered Clouds
3:55 AM 68.9 °F - 63.9 °F 84% 29.83 in 10.0 mi SSE 8.1 mph - N/A   Scattered Clouds
4:15 AM 69.8 °F - 64.4 °F 83% 29.83 in 10.0 mi SSE 5.8 mph - N/A   Mostly Cloudy
4:35 AM 70.0 °F - 64.6 °F 83% 29.84 in 10.0 mi South 6.9 mph - N/A   Overcast
4:55 AM 71.2 °F - 64.9 °F 80% 29.83 in 10.0 mi South 6.9 mph - N/A   Overcast
5:15 AM 71.1 °F - 65.1 °F 81% 29.83 in 10.0 mi South 8.1 mph - N/A   Overcast
5:35 AM 71.4 °F - 65.3 °F 81% 29.83 in 10.0 mi South 11.5 mph - N/A   Mostly Cloudy
5:55 AM 71.8 °F - 65.5 °F 80% 29.81 in 10.0 mi SSE 13.8 mph - N/A   Scattered Clouds
6:15 AM 71.8 °F - 65.5 °F 80% 29.81 in 10.0 mi South 17.3 mph 21.9 mph N/A   Clear
6:35 AM 72.7 °F - 66.2 °F 80% 29.82 in 10.0 mi South 20.7 mph 26.5 mph N/A   Clear
6:55 AM 73.2 °F - 66.2 °F 79% 29.83 in 10.0 mi South 18.4 mph 24.2 mph N/A   Scattered Clouds
7:15 AM 73.8 °F - 66.4 °F 78% 29.83 in 10.0 mi South 21.9 mph 27.6 mph N/A   Scattered Clouds
7:35 AM 74.3 °F - 66.6 °F 77% 29.84 in 10.0 mi South 18.4 mph 25.3 mph N/A   Scattered Clouds
7:55 AM 74.5 °F - 66.7 °F 77% 29.84 in 10.0 mi South 19.6 mph 23.0 mph N/A   Scattered Clouds
8:15 AM 75.2 °F - 66.9 °F 75% 29.84 in 10.0 mi South 13.8 mph 26.5 mph N/A   Clear
8:35 AM 75.7 °F - 67.1 °F 74% 29.84 in 10.0 mi South 18.4 mph 24.2 mph N/A   Clear
8:55 AM 76.8 °F - 67.3 °F 72% 29.84 in 10.0 mi South 21.9 mph 28.8 mph N/A   Clear
9:15 AM 77.2 °F - 67.6 °F 72% 29.84 in 10.0 mi South 18.4 mph 25.3 mph N/A   Scattered Clouds
9:35 AM 77.0 °F - 67.5 °F 72% 29.85 in 10.0 mi South 18.4 mph 27.6 mph N/A   Scattered Clouds
9:55 AM 77.2 °F - 67.3 °F 71% 29.86 in 10.0 mi South 20.7 mph 25.3 mph N/A   Mostly Cloudy
10:15 AM 78.1 °F - 67.3 °F 69% 29.86 in 10.0 mi South 16.1 mph 28.8 mph N/A   Mostly Cloudy
10:35 AM 78.8 °F - 67.8 °F 69% 29.87 in 10.0 mi South 18.4 mph 25.3 mph N/A   Mostly Cloudy
10:55 AM 79.3 °F - 67.6 °F 67% 29.86 in 10.0 mi South 20.7 mph 27.6 mph N/A   Mostly Cloudy
11:15 AM 79.2 °F - 67.3 °F 67% 29.87 in 10.0 mi South 24.2 mph 31.1 mph N/A   Mostly Cloudy
11:35 AM 79.7 °F - 67.3 °F 66% 29.87 in 10.0 mi South 24.2 mph 31.1 mph N/A   Mostly Cloudy
11:55 AM 80.6 °F 82.7 °F 66.2 °F 61% 29.86 in 10.0 mi SSW 19.6 mph 29.9 mph N/A Thunderstorm Mostly Cloudy
12:15 PM 80.4 °F 82.7 °F 66.6 °F 63% 29.85 in 10.0 mi SSW 20.7 mph 29.9 mph N/A   Scattered Clouds
12:35 PM 79.9 °F - 66.6 °F 64% 29.84 in 10.0 mi South 16.1 mph 28.8 mph N/A   Scattered Clouds
12:55 PM 80.1 °F 82.3 °F 67.1 °F 64% 29.83 in 10.0 mi South 17.3 mph - N/A   Scattered Clouds
1:15 PM 79.9 °F - 66.4 °F 63% 29.82 in 10.0 mi South 23.0 mph 29.9 mph N/A   Clear
1:35 PM 80.4 °F 82.7 °F 66.7 °F 63% 29.83 in 10.0 mi South 17.3 mph 21.9 mph N/A   Scattered Clouds
1:55 PM 80.4 °F 82.7 °F 66.6 °F 63% 29.82 in 10.0 mi South 19.6 mph 25.3 mph N/A   Scattered Clouds
2:15 PM 81.0 °F 83.3 °F 66.9 °F 62% 29.81 in 10.0 mi South 16.1 mph 26.5 mph N/A   Clear
2:35 PM 82.0 °F 84.3 °F 66.6 °F 59% 29.79 in 10.0 mi South 19.6 mph 27.6 mph N/A   Clear
2:55 PM 82.0 °F 84.5 °F 67.1 °F 60% 29.79 in 10.0 mi South 17.3 mph 23.0 mph N/A   Clear
3:15 PM 83.5 °F 86.0 °F 66.9 °F 57% 29.78 in 10.0 mi South 20.7 mph 26.5 mph N/A   Clear
3:35 PM 83.5 °F 85.7 °F 66.2 °F 56% 29.77 in 10.0 mi South 17.3 mph 27.6 mph N/A   Scattered Clouds
3:55 PM 82.2 °F 84.4 °F 66.2 °F 58% 29.76 in 10.0 mi South 16.1 mph 20.7 mph N/A   Scattered Clouds
4:15 PM 81.7 °F 83.5 °F 65.3 °F 57% 29.75 in 10.0 mi South 13.8 mph 19.6 mph N/A Thunderstorm Thunderstorm
4:35 PM 80.4 °F 82.2 °F 65.1 °F 59% 29.73 in 10.0 mi SSE 25.3 mph 31.1 mph N/A Rain , Thunderstorm Light Thunderstorms and Rain
4:55 PM 75.2 °F - 67.1 °F 76% 29.72 in 7.0 mi SSE 18.4 mph 24.2 mph N/A Rain , Thunderstorm Light Thunderstorms and Rain
5:15 PM 74.1 °F - 66.9 °F 78% 29.72 in 10.0 mi SE 11.5 mph - N/A   Clear
5:35 PM 76.8 °F - 68.2 °F 75% 29.70 in 10.0 mi SE 11.5 mph - N/A   Clear
5:55 PM 78.3 °F - 67.5 °F 69% 29.70 in 10.0 mi SE 6.9 mph - N/A   Clear
6:15 PM 77.9 °F - 68.0 °F 71% 29.69 in 10.0 mi SE 8.1 mph - N/A   Clear
6:35 PM 78.6 °F - 67.5 °F 68% 29.67 in 10.0 mi SSE 11.5 mph - N/A   Clear
6:55 PM 78.8 °F - 66.2 °F 65% 29.67 in 10.0 mi SSE 13.8 mph 18.4 mph N/A   Clear
7:15 PM 79.0 °F - 65.7 °F 64% 29.66 in 10.0 mi SSE 15.0 mph 21.9 mph N/A   Clear
7:35 PM 78.1 °F - 65.5 °F 65% 29.66 in 10.0 mi SSE 12.7 mph 17.3 mph N/A   Clear
7:55 PM 78.3 °F - 65.1 °F 64% 29.66 in 10.0 mi SSE 15.0 mph 18.4 mph N/A   Clear
8:15 PM 78.3 °F - 64.8 °F 63% 29.67 in 10.0 mi SSE 15.0 mph - N/A   Scattered Clouds
8:35 PM 78.1 °F - 64.6 °F 63% 29.66 in 10.0 mi SSE 11.5 mph 18.4 mph N/A   Scattered Clouds
8:55 PM 77.9 °F - 64.4 °F 63% 29.67 in 10.0 mi SSE 11.5 mph 21.9 mph N/A   Clear
9:15 PM 77.5 °F - 64.4 °F 64% 29.68 in 10.0 mi SSE 12.7 mph - N/A   Scattered Clouds
9:35 PM 75.2 °F - 65.7 °F 72% 29.72 in 10.0 mi SSW 12.7 mph 19.6 mph 0.01 in Rain , Thunderstorm Thunderstorms and Rain
9:55 PM 73.0 °F - 66.2 °F 79% 29.74 in 7.0 mi SSW 13.8 mph - 0.12 in Rain , Thunderstorm Thunderstorms and Rain
10:15 PM 66.6 °F - 62.1 °F 85% 29.76 in 4.0 mi NW 12.7 mph 27.6 mph 0.14 in Rain , Thunderstorm Heavy Thunderstorms and Rain
10:35 PM 64.9 °F - 62.2 °F 91% 29.77 in 5.0 mi NNW 10.4 mph - 0.32 in Rain , Thunderstorm Heavy Thunderstorms and Rain
10:55 PM 64.0 °F - 61.5 °F 91% 29.76 in 2.5 mi NW 10.4 mph - 0.61 in Rain , Thunderstorm Heavy Thunderstorms and Rain
11:15 PM 63.5 °F - 61.0 °F 91% 29.80 in 2.5 mi Calm Calm - 0.26 in Rain , Thunderstorm Heavy Thunderstorms and Rain
11:35 PM 63.1 °F - 60.8 °F 92% 29.78 in 2.5 mi Calm Calm - 0.39 in Rain , Thunderstorm Heavy Thunderstorms and Rain
11:55 PM 63.1 °F - 61.0 °F 93% 29.73 in 7.0 mi ENE 8.1 mph - 0.47 in Rain , Thunderstorm Rain